PORT of CARTAGENA

Land: Colombia Land: Colombia (CO)
Latitude / Longitude: 10.347° / -75.53105° Toon op kaart Toon op kaart
Lokale Tijd:  UTC-5
UN/LOCODE: COCTG
Schepen momenteel in haven: 58
Verwachte aankomsten: 19

Recente Aankomst- en Vertrektijden


Scheepsnaam
Aankomst (UTC)
Aankomst (LT)
Vertrek (UTC)
Vertrek (LT)
Vessel Type: Jachten & Overige  MAGELLANO 1800 2014-10-02 12:26:00 2014-10-02 07:26:00 2014-10-02 17:47:00 2014-10-02 12:47:00
Vessel Type: Cargoschip  BOX QUEEN 2014-10-01 23:56:00 2014-10-01 18:56:00 2014-10-02 17:39:00 2014-10-02 12:39:00
Vessel Type: Cargoschip  SPIRIT OF SYDNEY 2014-10-02 01:50:00 2014-10-01 20:50:00 2014-10-02 17:28:00 2014-10-02 12:28:00
Vessel Type: Sleepboot, Loods etc  VERRAZZANO 1800 2014-10-02 16:57:00 2014-10-02 11:57:00
Vessel Type: Cargoschip  VEGA SAGITTARIUS 2014-10-01 19:18:00 2014-10-01 14:18:00 2014-10-02 16:38:00 2014-10-02 11:38:00
Vessel Type: Sleepboot, Loods etc  VERRAZZANO 1800 2014-10-02 07:52:00 2014-10-02 02:52:00 2014-10-02 15:24:00 2014-10-02 10:24:00
Vessel Type: Tankers  STOLT TEAL 2014-10-01 00:16:00 2014-09-30 19:16:00 2014-10-02 12:53:00 2014-10-02 07:53:00
Vessel Type: Tankers  VENEBUNKER 7 2014-10-02 11:10:00 2014-10-02 06:10:00
Vessel Type: Sleepboot, Loods etc  ARC 7 DE AGOSTO 2014-10-02 10:57:00 2014-10-02 05:57:00
Vessel Type: Jachten & Overige  MAGELLANO 1800 2014-10-02 03:12:00 2014-10-01 22:12:00 2014-10-02 10:51:00 2014-10-02 05:51:00

Verwachte aankomsten


Scheepsnaam
Scheduled Arrival (UTC)
Geplande Aankomst (lokale tijd)
Geschatte Aankomsttijd (UTC)
Geschatte Aankomsttijd (Lokaal)
Vessel Type: Tankers  CHRISTOPH SCHULTE 2014-10-01 21:00:00 2014-10-01 16:00:00
Vessel Type: Cargoschip  DUBLIN EXPRESS 2014-10-01 21:00:00 2014-10-01 16:00:00
Vessel Type: Cargoschip  VEGA SAGITTARIUS 2014-10-02 18:00:00 2014-10-02 13:00:00
Vessel Type: Cargoschip  HEINRICH SIBUM 2014-10-02 20:00:00 2014-10-02 15:00:00
Vessel Type: Cargoschip  SANTA RAFAELA 2014-10-03 08:00:00 2014-10-03 03:00:00
Vessel Type: Cargoschip  STADT GERA 2014-10-03 12:00:00 2014-10-03 07:00:00 2014-10-03 09:34:00 2014-10-03 04:34:00
Vessel Type: Cargoschip  HS LISZT 2014-10-03 18:00:00 2014-10-03 13:00:00 2014-10-03 14:15:00 2014-10-03 09:15:00
Vessel Type: Cargoschip  SPIRIT OF SYDNEY 2014-10-03 19:00:00 2014-10-03 14:00:00
Vessel Type: Cargoschip  SPYROS 2014-10-03 23:00:00 2014-10-03 18:00:00 2014-10-03 21:00:00 2014-10-03 16:00:00
Vessel Type: Cargoschip  SPIRIT OF TOKYO 2014-10-04 02:00:00 2014-10-03 21:00:00 2014-10-03 20:50:00 2014-10-03 15:50:00

Wind Forecast


    
Tijd (UTC)
Snelheid
Direction
Temperature
2014-10-02 18:00:00 3 knots 244° 31°C
2014-10-02 21:00:00 15 knots 345° 30°C
2014-10-03 00:00:00 15 knots 24° 29°C
2014-10-03 03:00:00 17 knots 34° 29°C
2014-10-03 06:00:00 15 knots 50° 29°C
2014-10-03 09:00:00 8 knots 97° 29°C
2014-10-03 12:00:00 10 knots 149° 28°C
2014-10-03 15:00:00 8 knots 184° 30°C
2014-10-03 18:00:00 10 knots 249° 30°C
2014-10-03 21:00:00 9 knots 313° 29°C
2014-10-04 00:00:00 10 knots 359° 29°C
2014-10-04 03:00:00 11 knots 32° 29°C
2014-10-04 06:00:00 11 knots 41° 29°C
2014-10-04 09:00:00 9 knots 48° 29°C
2014-10-04 12:00:00 8 knots 111° 28°C
2014-10-04 15:00:00 8 knots 164° 30°C
2014-10-04 18:00:00 8 knots 248° 30°C